Time,TemperatureF,DewpointF,PressureIn,WindDirection,WindDirectionDegrees,WindSpeedMPH,WindSpeedGustMPH,Humidity,HourlyPrecipIn,Conditions,Clouds,dailyrainin,SolarRadiationWatts/m^2,SoftwareType,DateUTC
2013-04-10 00:02:00,75.0,62.0,-100.00,North,10,10.0,17.0,65,0.00,,,0.00,0.000000,,2013-04-10 10:02:00,
2013-04-10 00:12:00,75.0,62.0,-100.00,North,10,10.0,17.0,65,0.00,,,0.00,0.000000,,2013-04-10 10:12:00,
2013-04-10 00:23:00,75.0,62.0,-100.00,North,10,10.0,17.0,65,0.00,,,0.00,0.000000,,2013-04-10 10:23:00,
2013-04-10 00:33:00,75.0,62.0,-100.00,North,10,10.0,17.0,65,0.00,,,0.00,0.000000,,2013-04-10 10:33:00,
2013-04-10 01:02:00,76.0,65.0,-100.00,North,9,9.0,15.0,68,0.00,,,0.00,1.000000,,2013-04-10 11:02:00,
2013-04-10 01:12:00,76.0,65.0,-100.00,North,9,9.0,15.0,68,0.00,,,0.00,1.000000,,2013-04-10 11:12:00,
2013-04-10 01:22:00,76.0,65.0,-100.00,North,9,9.0,15.0,68,0.00,,,0.00,1.000000,,2013-04-10 11:22:00,
2013-04-10 01:32:00,76.0,65.0,-100.00,North,9,9.0,15.0,68,0.00,,,0.00,1.000000,,2013-04-10 11:32:00,
2013-04-10 04:02:00,76.0,66.0,-100.00,NNE,16,5.0,12.0,71,-99.99,,,0.00,1.000000,,2013-04-10 14:02:00,
2013-04-10 04:12:00,76.0,66.0,-100.00,NNE,16,5.0,12.0,71,-99.99,,,0.00,1.000000,,2013-04-10 14:12:00,
2013-04-10 04:22:00,76.0,66.0,-100.00,NNE,16,5.0,12.0,71,-99.99,,,0.00,1.000000,,2013-04-10 14:22:00,
2013-04-10 04:32:00,76.0,66.0,-100.00,NNE,16,5.0,12.0,71,-99.99,,,0.00,1.000000,,2013-04-10 14:32:00,
2013-04-10 05:02:00,76.0,64.0,-100.00,North,9,9.0,14.0,67,0.00,,,0.00,1.000000,,2013-04-10 15:02:00,
2013-04-10 05:12:00,76.0,64.0,-100.00,North,9,9.0,14.0,67,0.00,,,0.00,1.000000,,2013-04-10 15:12:00,
2013-04-10 05:22:00,76.0,64.0,-100.00,North,9,9.0,14.0,67,0.00,,,0.00,1.000000,,2013-04-10 15:22:00,
2013-04-10 05:32:00,76.0,64.0,-100.00,North,9,9.0,14.0,67,0.00,,,0.00,1.000000,,2013-04-10 15:32:00,
2013-04-10 06:02:00,76.0,65.0,-100.00,North,9,9.0,14.0,68,0.00,,,0.00,0.000000,,2013-04-10 16:02:00,
2013-04-10 06:12:00,76.0,65.0,-100.00,North,9,9.0,14.0,68,0.00,,,0.00,0.000000,,2013-04-10 16:12:00,
2013-04-10 06:23:00,76.0,65.0,-100.00,North,9,9.0,14.0,68,0.00,,,0.00,0.000000,,2013-04-10 16:23:00,
2013-04-10 06:32:00,76.0,65.0,-100.00,North,9,9.0,14.0,68,0.00,,,0.00,0.000000,,2013-04-10 16:32:00,
2013-04-10 07:02:00,75.0,64.0,-100.00,NNE,25,9.0,18.0,68,0.00,,,0.00,4.000000,,2013-04-10 17:02:00,
2013-04-10 07:12:00,75.0,64.0,-100.00,NNE,25,9.0,18.0,68,0.00,,,0.00,4.000000,,2013-04-10 17:12:00,
2013-04-10 07:22:00,75.0,64.0,-100.00,NNE,25,9.0,18.0,68,0.00,,,0.00,4.000000,,2013-04-10 17:22:00,
2013-04-10 07:32:00,75.0,64.0,-100.00,NNE,25,9.0,18.0,68,0.00,,,0.00,4.000000,,2013-04-10 17:32:00,
2013-04-10 08:02:00,77.0,63.0,-100.00,NNE,21,9.0,18.0,63,0.00,,,0.00,82.000000,,2013-04-10 18:02:00,
2013-04-10 08:12:00,77.0,63.0,-100.00,NNE,21,9.0,18.0,63,0.00,,,0.00,82.000000,,2013-04-10 18:12:00,
2013-04-10 08:22:00,77.0,63.0,-100.00,NNE,21,9.0,18.0,63,0.00,,,0.00,82.000000,,2013-04-10 18:22:00,
2013-04-10 08:32:00,77.0,63.0,-100.00,NNE,21,9.0,18.0,63,0.00,,,0.00,82.000000,,2013-04-10 18:32:00,
2013-04-10 09:03:00,85.0,68.0,-100.00,NNE,24,7.0,17.0,57,0.00,,,0.00,281.000000,,2013-04-10 19:03:00,
2013-04-10 09:12:00,85.0,68.0,-100.00,NNE,24,7.0,17.0,57,0.00,,,0.00,281.000000,,2013-04-10 19:12:00,
2013-04-10 09:22:00,85.0,68.0,-100.00,NNE,24,7.0,17.0,57,0.00,,,0.00,281.000000,,2013-04-10 19:22:00,
2013-04-10 09:32:00,85.0,68.0,-100.00,NNE,24,7.0,17.0,57,0.00,,,0.00,281.000000,,2013-04-10 19:32:00,
2013-04-10 10:02:00,85.0,62.0,-100.00,NE,34,7.0,17.0,46,0.00,,,0.00,444.000000,,2013-04-10 20:02:00,
2013-04-10 10:12:00,85.0,62.0,-100.00,NE,34,7.0,17.0,46,0.00,,,0.00,444.000000,,2013-04-10 20:12:00,
2013-04-10 10:22:00,85.0,62.0,-100.00,NE,34,7.0,17.0,46,0.00,,,0.00,444.000000,,2013-04-10 20:22:00,
2013-04-10 10:32:00,85.0,62.0,-100.00,NE,34,7.0,17.0,46,0.00,,,0.00,444.000000,,2013-04-10 20:32:00,
2013-04-10 11:02:00,93.0,67.0,-100.00,NE,37,7.0,14.0,43,0.00,,,0.00,561.000000,,2013-04-10 21:02:00,
2013-04-10 11:12:00,93.0,67.0,-100.00,NE,37,7.0,14.0,43,0.00,,,0.00,561.000000,,2013-04-10 21:12:00,
2013-04-10 11:22:00,93.0,67.0,-100.00,NE,37,7.0,14.0,43,0.00,,,0.00,561.000000,,2013-04-10 21:22:00,
2013-04-10 11:32:00,93.0,67.0,-100.00,NE,37,7.0,14.0,43,0.00,,,0.00,561.000000,,2013-04-10 21:32:00,
2013-04-10 12:03:00,92.0,69.0,-100.00,NE,43,7.0,14.0,47,0.00,,,-99.99,667.000000,,2013-04-10 22:03:00,
2013-04-10 12:12:00,92.0,69.0,-100.00,NE,43,7.0,14.0,47,0.00,,,-99.99,667.000000,,2013-04-10 22:12:00,
2013-04-10 12:22:00,92.0,69.0,-100.00,NE,43,7.0,14.0,47,0.00,,,-99.99,667.000000,,2013-04-10 22:22:00,
2013-04-10 12:33:00,92.0,69.0,-100.00,NE,43,7.0,14.0,47,0.00,,,-99.99,667.000000,,2013-04-10 22:33:00,
2013-04-10 13:02:00,83.0,65.0,-100.00,NE,35,6.0,14.0,54,0.02,,,0.02,564.000000,,2013-04-10 23:02:00,
2013-04-10 13:12:00,83.0,65.0,-100.00,NE,35,6.0,14.0,54,0.02,,,0.02,564.000000,,2013-04-10 23:12:00,
2013-04-10 13:22:00,83.0,65.0,-100.00,NE,35,6.0,14.0,54,0.02,,,0.02,564.000000,,2013-04-10 23:22:00,
2013-04-10 13:32:00,83.0,65.0,-100.00,NE,35,6.0,14.0,54,0.02,,,0.02,564.000000,,2013-04-10 23:32:00,
2013-04-10 14:02:00,87.0,68.0,-100.00,NNE,13,5.0,15.0,54,0.00,,,0.02,439.000000,,2013-04-11 00:02:00,
2013-04-10 14:12:00,87.0,68.0,-100.00,NNE,13,5.0,15.0,54,0.00,,,0.02,439.000000,,2013-04-11 00:12:00,
2013-04-10 14:22:00,87.0,68.0,-100.00,NNE,13,5.0,15.0,54,0.00,,,0.02,439.000000,,2013-04-11 00:22:00,
2013-04-10 14:32:00,87.0,68.0,-100.00,NNE,13,5.0,15.0,54,0.00,,,0.02,439.000000,,2013-04-11 00:32:00,
2013-04-10 15:02:00,84.0,63.0,-100.00,NNE,29,6.0,20.0,49,0.00,,,0.02,606.000000,,2013-04-11 01:02:00,
2013-04-10 15:12:00,84.0,63.0,-100.00,NNE,29,6.0,20.0,49,0.00,,,0.02,606.000000,,2013-04-11 01:12:00,
2013-04-10 15:22:00,84.0,63.0,-100.00,NNE,29,6.0,20.0,49,0.00,,,0.02,606.000000,,2013-04-11 01:22:00,
2013-04-10 15:32:00,84.0,63.0,-100.00,NNE,29,6.0,20.0,49,0.00,,,0.02,606.000000,,2013-04-11 01:32:00,
2013-04-10 16:02:00,84.0,62.0,-100.00,NNE,26,6.0,16.0,48,0.00,,,0.02,397.000000,,2013-04-11 02:02:00,
2013-04-10 16:12:00,84.0,62.0,-100.00,NNE,26,6.0,16.0,48,0.00,,,0.02,397.000000,,2013-04-11 02:12:00,
2013-04-10 16:22:00,84.0,62.0,-100.00,NNE,26,6.0,16.0,48,0.00,,,0.02,397.000000,,2013-04-11 02:22:00,
2013-04-10 16:32:00,84.0,62.0,-100.00,NNE,26,6.0,16.0,48,0.00,,,0.02,397.000000,,2013-04-11 02:32:00,
2013-04-10 17:02:00,83.0,62.0,-100.00,NNE,27,5.0,17.0,49,0.00,,,0.02,414.000000,,2013-04-11 03:02:00,
2013-04-10 17:12:00,83.0,62.0,-100.00,NNE,27,5.0,17.0,49,0.00,,,0.02,414.000000,,2013-04-11 03:12:00,
2013-04-10 17:22:00,83.0,62.0,-100.00,NNE,27,5.0,17.0,49,0.00,,,0.02,414.000000,,2013-04-11 03:22:00,
2013-04-10 17:33:00,83.0,62.0,-100.00,NNE,27,5.0,17.0,49,0.00,,,0.02,414.000000,,2013-04-11 03:33:00,
2013-04-10 18:03:00,80.0,59.0,-100.00,NNE,22,5.0,12.0,48,0.00,,,-99.99,322.000000,,2013-04-11 04:03:00,
2013-04-10 18:12:00,80.0,59.0,-100.00,NNE,22,5.0,12.0,48,0.00,,,-99.99,322.000000,,2013-04-11 04:12:00,
2013-04-10 18:22:00,80.0,59.0,-100.00,NNE,22,5.0,12.0,48,0.00,,,-99.99,322.000000,,2013-04-11 04:22:00,
2013-04-10 18:33:00,80.0,59.0,-100.00,NNE,22,5.0,12.0,48,0.00,,,-99.99,322.000000,,2013-04-11 04:33:00,
2013-04-10 19:02:00,75.0,61.0,-100.00,NNE,19,7.0,15.0,61,0.00,,,0.02,52.000000,,2013-04-11 05:02:00,
2013-04-10 19:12:00,75.0,61.0,-100.00,NNE,19,7.0,15.0,61,0.00,,,0.02,52.000000,,2013-04-11 05:12:00,
2013-04-10 19:22:00,75.0,61.0,-100.00,NNE,19,7.0,15.0,61,0.00,,,0.02,52.000000,,2013-04-11 05:22:00,
2013-04-10 19:32:00,75.0,61.0,-100.00,NNE,19,7.0,15.0,61,0.00,,,0.02,52.000000,,2013-04-11 05:32:00,
2013-04-10 20:02:00,76.0,63.0,-100.00,North,11,7.0,14.0,64,0.00,,,0.02,3.000000,,2013-04-11 06:02:00,
2013-04-10 20:12:00,76.0,63.0,-100.00,North,11,7.0,14.0,64,0.00,,,0.02,3.000000,,2013-04-11 06:12:00,
2013-04-10 20:22:00,76.0,63.0,-100.00,North,11,7.0,14.0,64,0.00,,,0.02,3.000000,,2013-04-11 06:22:00,
2013-04-10 20:32:00,76.0,63.0,-100.00,North,11,7.0,14.0,64,0.00,,,0.02,3.000000,,2013-04-11 06:32:00,
2013-04-10 21:02:00,74.0,63.0,-100.00,NNE,12,10.0,14.0,69,0.00,,,0.02,1.000000,,2013-04-11 07:02:00,
2013-04-10 21:12:00,74.0,63.0,-100.00,NNE,12,10.0,14.0,69,0.00,,,0.02,1.000000,,2013-04-11 07:12:00,
2013-04-10 21:22:00,74.0,63.0,-100.00,NNE,12,10.0,14.0,69,0.00,,,0.02,1.000000,,2013-04-11 07:22:00,
2013-04-10 21:31:00,74.0,63.0,-100.00,NNE,12,10.0,14.0,69,0.00,,,0.02,1.000000,,2013-04-11 07:31:00,
2013-04-10 22:02:00,76.0,66.0,-100.00,NNE,12,9.0,17.0,72,0.00,,,0.02,1.000000,,2013-04-11 08:02:00,
2013-04-10 22:12:00,76.0,66.0,-100.00,NNE,12,9.0,17.0,72,0.00,,,0.02,1.000000,,2013-04-11 08:12:00,
2013-04-10 22:22:00,76.0,66.0,-100.00,NNE,12,9.0,17.0,72,0.00,,,0.02,1.000000,,2013-04-11 08:22:00,
2013-04-10 22:32:00,76.0,66.0,-100.00,NNE,12,9.0,17.0,72,0.00,,,0.02,1.000000,,2013-04-11 08:32:00,
2013-04-10 23:02:00,76.0,66.0,-100.00,NNE,20,10.0,21.0,72,0.00,,,0.02,1.000000,,2013-04-11 09:02:00,
2013-04-10 23:12:00,76.0,66.0,-100.00,NNE,20,10.0,21.0,72,0.00,,,0.02,1.000000,,2013-04-11 09:12:00,
2013-04-10 23:22:00,76.0,66.0,-100.00,NNE,20,10.0,21.0,72,0.00,,,0.02,1.000000,,2013-04-11 09:22:00,
2013-04-10 23:32:00,76.0,66.0,-100.00,NNE,20,10.0,21.0,72,0.00,,,0.02,1.000000,,2013-04-11 09:32:00,